Location: Karlovy Vary
(50.2170°N, 12.9000°E)
Time: 19:42:43
(UTC+01:00)

ISS - Visible Passes

Search period start: 12 December 2025 00:00
Search period end: 22 December 2025 00:00
Orbit: 416 x 420 km, 51.6° (Epoch: 12 December)

Date Brightness Start Highest point End Pass type
(mag) Time Alt. Az. Time Alt. Az. Time Alt. Az.
12 Dec -0.1 06:28:42 10° SE 06:29:20 10° SE 06:29:58 10° SE visible
13 Dec -1.8 07:14:32 10° SSW 07:17:35 32° SSE 07:20:39 10° E visible
14 Dec -1.2 06:27:02 10° SSW 06:29:45 22° SE 06:32:27 10° E visible
15 Dec -0.8 05:39:51 10° S 05:41:55 15° SE 05:44:00 10° E visible
15 Dec -3.2 07:14:52 10° WSW 07:18:13 62° SSE 07:21:33 10° ENE visible
16 Dec -0.5 04:53:56 10° SE 04:54:08 10° SE 04:54:18 10° SE visible
16 Dec -2.7 06:27:00 10° SW 06:30:13 44° SSE 06:33:28 10° E visible
17 Dec -2.1 05:41:15 26° S 05:42:15 31° SSE 05:45:18 10° E visible
17 Dec -3.8 07:15:27 10° WSW 07:18:50 83° NNW 07:22:13 10° ENE visible
18 Dec -0.9 04:55:34 18° ESE 04:55:34 18° ESE 04:56:59 10° E visible
18 Dec -3.7 06:28:32 20° WSW 06:30:44 80° SSE 06:34:07 10° ENE visible
19 Dec -3.4 05:42:40 60° SSE 05:42:40 60° SSE 05:45:59 10° ENE visible
19 Dec -3.7 07:16:04 10° W 07:19:26 67° N 07:22:48 10° E visible
20 Dec -0.9 04:56:39 19° E 04:56:39 19° E 04:57:47 10° E visible
20 Dec -3.8 06:29:35 27° W 06:31:15 73° N 06:34:37 10° ENE visible
21 Dec -3.5 05:43:28 66° ENE 05:43:28 66° ENE 05:46:25 10° ENE visible
21 Dec -3.7 07:16:34 10° WNW 07:19:57 70° N 07:23:19 10° E visible
